{"data":{"norad_id":66540,"intl_designator":"2025-265AA","name":"STARLINK-35818","alt_names":[],"object_type":"PAYLOAD","status":"ACTIVE","operator":null,"country":"US","launch_date":"2025-11-19","launch_site_code":"AFETR","launch_vehicle":null,"mission":null,"orbit_class":"UNKNOWN","rcs_meters":null,"size_class":null,"mass_kg":null,"dimensions":null,"purposes":["comms"],"wikipedia_slug":null,"has_3d_model":false,"image_url":null,"decayed_at":null,"tle_current":{"epoch":"2026-05-24T21:34:28.175808Z","epoch_age_seconds":77746,"freshness":"FRESH","line1":"1 66540U 25265AA  26144.89893722  .00003011  00000+0  11889-3 0  9990","line2":"2 66540  42.9990 207.9740 0000401  75.6268 284.4628 15.27574432 28761","mean_motion":15.27574432,"eccentricity":4.01e-5,"inclination_deg":42.999,"raan_deg":207.974,"arg_perigee_deg":75.6268,"mean_anomaly_deg":284.4628,"bstar":0.00011889,"rev_number":2876,"period_min":94.267092315407,"perigee_km":482.79063445435,"apogee_km":483.3409029164,"semimajor_km":6861.2027686854,"source":"CELESTRAK","updated_at":"2026-05-25T13:38:21.254654Z"}}}